{"data":{"norad_id":53985,"epoch":"2026-09-20T20:41:26.141568Z","epoch_age_seconds":55213,"freshness":"FRESH","line1":"1 53985U 22125X   26263.86210812 -.00000110  00000+0  11214-4 0  9994","line2":"2 53985  53.1595  57.5251 0001514  92.6842 267.4322 15.08828814218920","mean_motion":15.08828814,"eccentricity":0.0001514,"inclination_deg":53.1595,"raan_deg":57.5251,"arg_perigee_deg":92.6842,"mean_anomaly_deg":267.4322,"bstar":1.1214e-5,"rev_number":21892,"period_min":95.438262222901,"perigee_km":538.73020803485,"apogee_km":540.82495256977,"semimajor_km":6917.9145803023,"source":"CELESTRAK","updated_at":"2026-09-21T09:00:33.043589Z"}}